This is the latest recevied weather packets stored in our database for station/object KF7ROW. If no packets are shown the sender has not sent any weather packets the latest 1 day(s).
| Time | Temp. | Humidity | Pressure | Rain* | Wind** | Luminosity | Snow |
|---|---|---|---|---|---|---|---|
| 1778103169 | 13.33° C | 84% | 1026.8 hPa | 0 mm | - | 205 W/m² | - |
| 1778101954 | 13.33° C | 83% | 1026.9 hPa | 0 mm | - | 180 W/m² | - |
| 1778101348 | 13.89° C | 82% | 1026.8 hPa | 0 mm | - | 197 W/m² | - |
| 1778100438 | 13.89° C | 80% | 1026.8 hPa | 0 mm | - | 260 W/m² | - |
| 1778100135 | 13.89° C | 80% | 1026.9 hPa | 0 mm | - | 264 W/m² | - |
| 1778099833 | 13.89° C | 80% | 1026.8 hPa | 0 mm | - | 265 W/m² | - |
| 1778099530 | 13.89° C | 81% | 1026.8 hPa | 0 mm | - | 268 W/m² | - |
| 1778099228 | 13.89° C | 82% | 1026.6 hPa | 0 mm | - | 294 W/m² | - |
| 1778098621 | 13.33° C | 83% | 1026.8 hPa | 0 mm | - | 222 W/m² | - |
| 1778098014 | 13.33° C | 84% | 1026.9 hPa | 0 mm | - | 218 W/m² | - |
| 1778096497 | 13.33° C | 84% | 1026.9 hPa | 0 mm | - | 197 W/m² | - |
| 1778092860 | 13.33° C | 87% | 1026.5 hPa | 0 mm | - | 233 W/m² | - |
| 1778092556 | 12.78° C | 87% | 1026.6 hPa | 0 mm | - | 210 W/m² | - |
| 1778091345 | 12.78° C | 88% | 1026.5 hPa | 0 mm | - | 173 W/m² | - |
| 1778090738 | 12.78° C | 87% | 1026.7 hPa | 0 mm | - | 134 W/m² | - |
| 1778090435 | 13.33° C | 87% | 1026.4 hPa | 0 mm | - | 130 W/m² | - |
| 1778089527 | 13.33° C | 87% | 1026.3 hPa | 0 mm | - | 117 W/m² | - |
| 1778089222 | 12.78° C | 86% | 1026.4 hPa | 0 mm | - | 123 W/m² | - |
| 1778088617 | 12.78° C | 85% | 1026.2 hPa | 0 mm | - | 153 W/m² | - |
| 1778087405 | 12.78° C | 85% | 1026 hPa | 0 mm | - | 144 W/m² | - |
| 1778085272 | 12.78° C | 85% | 1026.1 hPa | 0 mm | - | 96 W/m² | - |
| 1778084967 | 12.78° C | 85% | 1025.9 hPa | 0 mm | - | 102 W/m² | - |
| 1778084054 | 12.78° C | 86% | 1025.8 hPa | 0 mm | - | 95 W/m² | - |
| 1778082837 | 12.78° C | 85% | 1025.4 hPa | 0 mm | - | 81 W/m² | - |
| 1778081714 | 12.78° C | 87% | 1025.3 hPa | 0 mm | - | 72 W/m² | - |
* Rain latest hour (hover to see other rain measurements)
** Current wind speed in m/s (hover to see current wind gust speed)